Find Starlink 35981

NORAD ID: 66598 Int'l Des: 2025-270 Owner: SPXS Country: US Constellation: starlink operational
LEOCIRCULAR

Live-Position

3D-Globus wird geladen...

Über Starlink 35981

Beschreibung wird geladen...

Nächste Überflüge

Passes for default location (London). Set your location on the main map for personalized predictions.

Höhenverlauf

Loading altitude history...

Zweizeiliger Elementsatz

1 66598U 25270L 26106.57282358 .00010136 00000-0 37733-3 0 9992
2 66598 43.0014 201.8835 0002759 289.9096 70.1459 15.27581188 23356
Epoch: 16. Apr. 2026 • Age: 23 hours

Aktueller Status

Höhe 492.4 km
Geschwindigkeit 7.62 km/s
Subsatellitenpunkt -36.26°S, 30.82°E
Startdatum 22. Nov. 2025
Alter 0.3 years
Typ internet

Technische Details

Klassifizierung Payload
Masse 575.00 kg
Trockenmasse 530.00 kg
Gesamtmasse 575.00 kg
Länge 0.30 m
Durchmesser 4.10 m
Spannweite 29.00 m
Form Box + pan
Hersteller SPXS
Bus-Typ Starlink V2MO
Phasenstatus In Orbit
Besitzer/Staat SPXS/US

Most Searched